Wind_Speed
11 11 11 11 12 12 14 14 14 12 11 11 10 9 8 6 6 6 6 6 6 6 5 5 5 6 6 6 6 6 5 3 3 2 2 3 3 2 3 3 3 3 2 2 2 1 0 0 1
10 10 10 11 12 13 14 14 13 11 11 11 10 9 8 8 7 7 7 6 6 6 5 5 5 6 6 6 6 6 5 3 3 3 3 3 4 3 3 3 2 1 1 1 1 1 0 0 1
11 11 10 12 14 14 13 13 13 11 12 12 10 9 8 8 8 7 7 6 6 6 6 6 6 6 5 5 5 6 5 4 3 2 3 3 3 3 3 2 1 2 1 1 1 1 1 0 1
11 11 11 13 15 15 14 14 13 12 12 12 11 10 9 9 8 7 7 7 6 6 6 6 6 6 6 5 5 5 4 4 3 2 2 2 3 3 3 3 3 3 2 1 1 2 1 1 1
12 12 11 13 15 16 15 14 14 13 12 11 11 10 9 10 9 8 8 7 6 5 5 6 6 6 6 6 5 5 4 3 3 3 2 2 2 2 2 3 3 2 2 1 1 1 1 1 1
10 10 10 13 14 14 14 14 14 13 12 11 11 10 10 11 11 10 9 8 7 6 6 6 6 6 6 6 6 5 5 4 4 4 4 3 3 3 2 2 2 2 2 1 2 2 1 2 0
9 9 10 12 12 12 13 13 13 13 12 12 12 11 11 12 11 10 10 10 8 8 8 7 7 6 5 5 5 5 5 5 4 4 4 4 3 3 2 1 2 2 2 1 2 2 2 2 1
9 9 10 11 11 13 13 13 13 13 14 13 13 13 12 12 11 11 11 10 10 9 9 8 7 7 6 6 5 5 5 5 4 4 3 3 4 3 2 2 2 2 2 2 2 2 2 2 2
10 9 10 11 12 12 12 12 13 14 14 14 14 13 12 12 12 12 12 11 10 9 9 9 8 6 6 5 5 5 5 5 4 4 4 3 3 3 3 3 2 2 2 2 2 2 2 2 2
10 8 9 10 11 11 11 12 12 13 14 14 14 13 12 12 12 11 11 11 10 9 8 8 7 7 6 5 5 5 5 5 5 4 4 3 3 3 3 3 3 3 3 2 2 2 2 2 2
8 8 9 9 9 9 11 12 12 12 13 13 13 12 12 12 11 11 11 11 10 9 8 9 8 7 7 6 6 5 5 5 5 4 4 4 4 4 4 3 3 3 3 2 1 1 2 2 2
7 7 7 7 7 8 10 12 11 12 13 13 14 13 12 12 11 10 11 11 10 9 8 8 7 6 6 6 6 5 5 5 5 4 4 3 3 4 4 3 3 4 3 2 2 2 2 2 3
6 5 6 6 6 8 8 9 10 12 12 12 13 13 12 12 11 10 10 10 10 9 8 7 6 5 5 5 5 5 5 4 4 4 4 3 4 3 4 3 4 4 4 4 3 3 2 2 2
5 4 4 6 6 6 7 8 9 11 11 11 11 10 10 10 11 11 10 10 10 9 7 6 5 5 5 4 4 4 4 4 3 4 4 4 4 4 4 4 3 4 4 4 3 3 2 2 2
4 4 3 4 4 5 5 6 8 9 10 10 9 10 9 10 10 10 10 10 10 9 8 7 6 5 5 4 4 4 4 4 4 4 5 4 5 5 5 5 4 4 4 4 4 4 4 3 3
5 3 3 3 3 2 3 5 7 8 8 8 9 9 9 9 9 9 10 10 9 9 8 8 8 6 5 5 4 4 5 4 4 5 5 5 5 5 5 6 5 5 4 4 4 4 4 4 4
5 2 2 2 2 2 3 5 5 6 7 7 7 8 7 7 8 9 9 9 8 8 8 8 8 7 6 5 4 4 5 5 5 5 5 5 6 6 5 5 6 5 4 5 5 6 5 5 5
5 3 1 2 0 2 4 5 4 4 5 6 7 7 7 6 7 7 7 7 7 7 7 7 7 6 6 6 6 6 6 5 5 5 6 5 6 6 6 6 6 7 6 6 6 6 6 5 6
5 4 2 0 2 4 6 6 4 4 4 4 5 5 6 6 6 6 5 6 6 6 6 6 6 6 6 6 6 6 6 5 5 5 6 6 7 7 7 7 7 7 7 7 7 7 7 7 7
6 5 3 2 2 4 6 6 5 5 5 4 4 4 4 4 4 4 4 4 4 4 5 5 5 5 5 5 6 6 6 6 5 5 6 8 8 9 9 9 9 8 8 7 8 8 8 8 9
8 6 4 4 5 6 7 5 5 6 5 4 3 3 3 3 3 3 3 3 3 3 4 4 4 4 5 5 5 6 6 6 6 6 7 8 9 10 9 10 10 9 8 8 9 9 9 9 9
8 6 7 7 8 8 9 8 7 8 6 5 5 4 3 3 3 2 3 2 2 3 3 4 5 5 5 5 5 5 6 6 7 7 8 9 9 10 10 11 11 10 10 10 10 9 10 10 10
9 8 9 10 10 10 10 11 9 10 7 6 5 4 3 3 4 3 5 4 2 2 3 5 6 6 6 6 6 5 6 6 8 9 9 10 10 11 12 12 12 11 11 11 11 10 11 12 12
11 11 11 11 12 12 10 11 10 10 8 8 7 6 5 4 5 5 5 5 4 4 4 6 7 8 8 7 6 6 6 7 8 9 9 10 11 11 12 12 12 12 11 12 12 12 12 12 12
14 13 13 12 13 13 12 12 10 10 10 9 8 9 9 7 6 6 7 7 8 7 6 7 8 9 8 7 7 7 7 8 8 9 10 10 11 12 12 12 12 12 12 13 13 13 13 13 13
14 15 15 14 14 13 13 13 11 11 11 10 11 10 10 9 8 8 8 8 9 9 8 8 8 8 9 9 8 9 9 9 9 10 10 10 11 12 12 12 12 13 13 13 13 13 13 13 14
14 16 16 16 16 15 14 13 13 12 12 11 11 10 10 10 9 8 9 9 8 8 9 8 8 9 10 10 10 10 10 10 10 11 11 11 12 12 13 14 14 14 14 13 13 13 13 14 14
15 15 16 17 17 16 14 14 13 13 12 12 11 12 11 11 12 11 10 10 9 9 10 9 10 11 12 11 12 11 11 11 11 12 12 13 13 13 14 14 15 14 14 14 14 15 15 15 15
16 16 18 18 18 17 17 15 15 14 14 14 13 12 12 13 12 12 11 10 10 10 11 10 11 12 12 12 11 12 12 12 13 13 14 14 14 14 14 15 15 15 15 15 15 16 16 16 17
18 18 19 20 19 19 18 17 16 15 15 15 13 13 13 13 12 13 12 12 12 13 12 12 12 13 14 14 13 13 13 14 14 15 16 15 15 15 15 16 16 16 16 17 17 17 18 18 18
Wind_Direction
82 83 80 73 72 69 64 58 55 50 48 42 43 45 42 43 55 60 66 81 93 99 103 108 109 109 105 108 111 111 117 117 107 95 79 68 64 107 140 129 114 108 106 115 100 96 122 93 88
80 80 78 66 64 62 60 56 51 51 48 44 42 43 44 48 54 59 67 75 90 102 109 107 113 113 112 112 109 108 106 106 104 96 77 68 71 92 123 121 112 112 130 134 104 68 56 208 256
81 77 75 65 61 58 57 54 51 43 44 45 42 43 46 51 55 59 66 73 84 91 104 103 101 112 119 122 118 107 97 103 101 94 72 62 66 77 102 91 98 98 91 59 56 53 40 320 287
83 77 74 64 59 58 55 48 49 46 42 44 42 41 46 49 53 60 65 75 83 90 103 104 106 107 110 113 119 113 107 100 100 93 73 65 69 71 76 80 95 84 68 54 55 33 28 6 309
80 76 72 64 56 53 51 47 43 42 39 40 41 41 46 50 55 59 67 64 79 95 108 107 110 107 107 106 104 107 107 93 90 86 76 81 74 73 72 79 73 52 59 51 46 9 337 324 308
86 76 65 62 57 49 50 47 43 40 40 43 45 42 45 53 60 61 66 64 77 95 107 111 110 106 105 104 101 97 88 92 90 83 71 66 70 77 96 68 41 47 50 63 52 25 347 329 294
87 81 73 61 57 48 47 48 45 47 44 47 49 46 45 53 58 61 67 69 78 93 99 106 104 102 108 105 96 89 87 81 84 79 67 54 50 56 59 29 34 38 43 46 39 25 13 15 48
83 80 72 55 47 43 45 47 50 45 42 47 47 47 46 52 55 62 67 71 77 90 91 98 91 91 98 102 99 95 87 77 82 69 58 53 42 39 36 23 22 28 48 49 40 29 37 40 39
85 77 69 57 48 46 46 46 47 48 41 42 46 47 48 52 55 65 61 63 69 76 84 90 87 84 86 90 88 86 84 80 72 70 60 51 42 38 30 27 24 23 29 31 29 23 22 28 23
84 73 68 58 53 49 47 46 46 47 42 41 45 44 43 50 52 54 58 62 65 69 73 80 88 87 84 85 85 81 78 73 64 58 57 53 47 37 24 30 33 23 15 8 14 12 4 353 0
83 77 73 64 59 56 55 52 45 46 43 40 45 45 46 48 50 58 61 59 60 63 69 73 79 82 78 80 85 83 76 68 63 58 61 60 51 38 25 27 24 18 17 19 14 1 0 350 348
99 89 78 73 67 58 54 53 46 43 43 43 43 44 49 50 52 56 58 58 62 66 71 78 72 67 70 76 78 77 74 66 60 60 62 57 49 39 31 27 21 16 16 13 1 354 353 4 7
122 109 91 81 75 58 50 49 44 41 41 41 40 42 42 46 48 54 59 59 67 68 73 81 78 64 65 72 75 74 69 65 56 49 46 36 26 26 22 24 17 10 8 3 355 347 337 351 356
138 122 98 84 78 61 53 48 46 42 37 36 38 41 42 46 48 52 56 59 61 63 71 73 71 70 69 75 71 66 58 54 45 33 26 19 15 10 3 8 360 354 353 351 347 342 322 315 331
143 128 114 92 81 70 55 48 47 46 39 35 39 42 45 49 50 53 56 58 59 62 64 62 67 70 71 76 68 54 52 50 39 25 16 11 6 2 358 0 359 352 345 347 344 335 323 312 304
143 127 132 129 98 55 45 40 35 37 40 40 39 38 38 45 48 51 54 57 61 60 55 54 56 58 60 63 59 46 53 46 32 19 12 9 7 6 2 359 355 353 353 352 347 338 324 307 298
163 139 125 129 97 28 13 15 18 22 24 29 33 34 35 45 48 49 52 56 60 59 54 51 51 54 55 50 43 35 39 30 24 18 9 10 13 9 3 353 347 343 343 338 334 327 319 306 304
181 199 183 118 131 316 338 350 346 350 10 19 19 27 31 34 40 43 47 49 53 56 51 48 49 49 50 44 34 27 25 19 17 13 7 8 7 0 350 343 339 336 333 328 324 318 313 307 302
206 207 214 118 303 300 319 316 312 314 342 13 12 13 32 32 33 31 37 44 49 50 41 42 41 39 35 31 26 19 19 12 8 7 7 2 356 352 347 342 341 335 330 327 322 315 310 305 298
209 209 226 254 276 290 298 299 287 295 313 330 356 2 11 30 33 22 21 40 47 46 38 35 28 24 18 16 13 9 5 0 357 1 358 355 350 347 348 344 338 331 329 329 328 322 315 306 298
218 219 245 265 279 275 283 285 293 297 308 315 334 346 342 353 4 6 8 15 21 38 30 23 11 6 3 360 358 355 354 353 350 346 346 345 344 342 342 339 336 328 328 326 321 316 311 311 306
238 238 250 257 265 273 280 283 282 287 300 309 310 300 306 329 336 339 335 330 346 8 4 359 350 345 342 338 337 337 338 339 339 338 336 337 338 337 336 334 332 331 327 321 315 310 307 306 305
247 246 249 250 258 265 269 273 284 285 298 303 305 288 293 305 308 324 324 310 308 330 341 339 334 329 327 323 320 321 322 326 330 331 328 329 331 332 331 329 330 326 324 318 310 306 306 303 302
238 244 249 250 254 255 261 269 276 291 301 298 299 302 293 280 289 286 301 314 313 306 317 321 319 321 319 312 310 311 316 320 324 326 323 321 323 328 327 324 326 325 320 319 316 312 311 308 307
238 240 244 248 252 255 261 268 276 283 289 295 292 291 286 284 286 279 286 300 305 299 297 304 310 316 316 304 300 304 312 318 320 318 319 321 325 325 322 321 319 317 311 311 311 310 309 308 308
243 242 246 251 255 257 263 272 277 283 284 288 287 289 284 281 288 285 282 296 299 294 294 296 300 307 307 299 292 297 303 309 311 314 316 317 320 320 319 316 314 310 307 306 307 309 306 305 306
244 244 248 253 257 260 264 271 274 277 279 289 292 286 291 283 286 289 285 293 295 295 289 286 294 300 301 299 289 292 297 303 308 313 312 313 313 313 313 313 312 310 308 308 309 308 306 305 302
243 246 249 250 254 260 268 269 273 281 278 284 286 283 289 289 294 293 297 293 291 294 293 293 297 299 297 294 288 286 294 300 306 309 311 312 311 311 311 312 311 309 307 306 306 304 304 304 303
242 245 248 252 255 260 269 270 270 279 277 278 283 282 282 287 291 292 295 296 299 299 294 294 294 297 300 301 299 294 297 297 301 306 308 307 308 309 310 311 311 309 306 304 302 301 301 299 297
245 248 248 251 254 258 263 268 268 272 275 275 278 282 281 279 283 288 294 301 302 301 299 298 298 298 298 296 297 302 302 300 300 301 302 304 305 307 308 308 308 308 306 302 300 299 297 296 295
Height
5901 5900 5900 5900 5900 5899 5897 5897 5896 5896 5896 5895 5894 5893 5892 5892 5892 5893 5890 5888 5889 5889 5889 5890 5890 5891 5891 5892 5892 5893 5893 5893 5893 5893 5893 5892 5890 5888 5890 5892 5893 5893 5893 5894 5894 5894 5894 5894 5894
5902 5902 5902 5902 5900 5899 5898 5898 5898 5897 5897 5896 5895 5894 5893 5892 5892 5891 5889 5889 5888 5889 5890 5890 5891 5891 5892 5892 5893 5894 5894 5894 5894 5894 5894 5893 5891 5890 5891 5893 5893 5893 5893 5893 5894 5894 5894 5894 5894
5903 5903 5904 5903 5901 5900 5900 5899 5899 5898 5897 5897 5896 5896 5895 5893 5891 5891 5890 5889 5888 5889 5890 5891 5891 5892 5893 5893 5894 5894 5895 5895 5895 5895 5895 5894 5893 5893 5893 5893 5893 5894 5894 5893 5893 5894 5893 5893 5893
5905 5905 5905 5904 5902 5902 5902 5901 5901 5900 5899 5898 5897 5896 5895 5894 5892 5891 5890 5889 5889 5889 5890 5891 5892 5892 5893 5894 5895 5895 5895 5895 5896 5896 5895 5895 5895 5895 5895 5894 5894 5894 5894 5894 5894 5893 5893 5893 5893
5906 5907 5906 5905 5904 5903 5903 5902 5902 5901 5900 5899 5898 5897 5896 5895 5893 5892 5890 5889 5888 5888 5889 5891 5892 5893 5894 5895 5895 5896 5896 5896 5896 5896 5896 5896 5896 5896 5896 5895 5895 5894 5894 5893 5893 5893 5893 5893 5893
5908 5908 5908 5906 5905 5905 5905 5904 5903 5903 5901 5900 5899 5898 5897 5896 5894 5893 5891 5889 5887 5888 5889 5891 5893 5894 5895 5895 5896 5896 5896 5896 5897 5897 5897 5897 5896 5896 5896 5896 5895 5895 5894 5893 5893 5893 5893 5892 5892
5910 5909 5908 5908 5907 5907 5907 5906 5905 5904 5903 5902 5900 5899 5897 5897 5895 5894 5893 5890 5889 5889 5890 5892 5894 5895 5896 5896 5897 5897 5897 5897 5897 5897 5897 5897 5896 5896 5896 5896 5895 5894 5894 5893 5893 5893 5892 5892 5892
5911 5911 5909 5909 5909 5909 5908 5908 5907 5906 5904 5903 5902 5900 5899 5899 5897 5896 5895 5893 5892 5892 5893 5894 5896 5896 5897 5898 5898 5898 5898 5898 5898 5898 5898 5898 5897 5897 5896 5896 5895 5894 5893 5893 5893 5892 5892 5892 5892
5911 5912 5910 5910 5911 5911 5910 5909 5909 5907 5906 5905 5903 5902 5901 5900 5898 5898 5897 5896 5895 5896 5896 5896 5897 5898 5898 5898 5898 5898 5899 5899 5899 5899 5898 5898 5898 5897 5896 5895 5895 5894 5893 5892 5892 5892 5892 5892 5892
5912 5912 5912 5912 5912 5912 5912 5911 5910 5909 5907 5906 5905 5904 5902 5901 5901 5899 5898 5898 5897 5898 5898 5897 5898 5899 5899 5899 5899 5899 5899 5899 5899 5899 5899 5898 5898 5897 5896 5895 5894 5893 5892 5891 5891 5892 5892 5892 5892
5912 5913 5913 5913 5913 5914 5913 5912 5912 5910 5910 5908 5906 5906 5904 5903 5902 5901 5900 5899 5899 5899 5899 5899 5899 5900 5900 5900 5900 5900 5900 5899 5899 5899 5899 5898 5898 5897 5896 5895 5894 5893 5892 5891 5891 5891 5891 5891 5891
5913 5914 5914 5914 5914 5915 5915 5914 5913 5912 5912 5910 5908 5907 5906 5905 5904 5903 5902 5901 5900 5900 5900 5900 5900 5900 5900 5900 5900 5900 5900 5900 5899 5899 5899 5898 5898 5897 5897 5896 5895 5893 5892 5891 5891 5891 5891 5891 5891
5915 5915 5914 5914 5914 5915 5916 5915 5914 5913 5913 5912 5910 5909 5908 5907 5906 5904 5904 5903 5902 5902 5901 5901 5901 5901 5901 5901 5901 5901 5900 5900 5899 5899 5899 5898 5898 5897 5897 5896 5895 5894 5893 5892 5891 5891 5891 5891 5890
5915 5915 5916 5915 5915 5916 5916 5916 5916 5915 5914 5913 5912 5910 5909 5908 5907 5906 5905 5904 5903 5903 5902 5902 5902 5902 5901 5901 5901 5901 5900 5900 5899 5899 5899 5898 5898 5897 5897 5896 5895 5894 5893 5892 5892 5891 5891 5890 5890
5915 5916 5916 5916 5916 5916 5917 5917 5916 5915 5914 5914 5912 5911 5910 5909 5908 5907 5906 5905 5904 5904 5903 5902 5901 5901 5901 5901 5901 5900 5900 5899 5899 5899 5898 5898 5897 5897 5896 5895 5894 5893 5893 5892 5891 5891 5890 5890 5889
5915 5916 5916 5916 5916 5917 5919 5918 5917 5916 5915 5914 5913 5912 5911 5910 5909 5908 5907 5906 5905 5905 5904 5903 5902 5901 5901 5901 5901 5901 5900 5899 5899 5899 5898 5897 5897 5896 5895 5895 5894 5893 5892 5891 5891 5890 5889 5889 5889
5915 5915 5915 5915 5915 5916 5918 5917 5917 5916 5915 5914 5913 5912 5912 5911 5910 5909 5908 5907 5906 5906 5905 5904 5903 5902 5902 5902 5902 5901 5900 5900 5899 5899 5898 5897 5896 5896 5895 5894 5893 5892 5891 5891 5890 5889 5889 5888 5887
5914 5915 5915 5915 5916 5916 5916 5916 5916 5915 5915 5914 5913 5912 5912 5911 5910 5909 5908 5907 5907 5906 5905 5905 5904 5903 5903 5902 5902 5901 5901 5900 5899 5899 5898 5897 5896 5895 5894 5893 5892 5891 5890 5890 5889 5888 5887 5886 5885
5913 5914 5913 5914 5915 5915 5915 5915 5915 5915 5914 5914 5913 5912 5912 5912 5911 5910 5909 5908 5907 5906 5906 5905 5905 5904 5903 5903 5902 5901 5901 5900 5899 5898 5897 5896 5895 5894 5892 5891 5891 5890 5889 5888 5887 5886 5885 5884 5883
5911 5912 5912 5913 5913 5914 5914 5914 5914 5913 5913 5913 5912 5912 5911 5911 5910 5910 5909 5908 5907 5906 5905 5905 5904 5904 5903 5903 5902 5901 5900 5899 5899 5898 5896 5895 5894 5892 5891 5890 5889 5888 5887 5886 5885 5884 5883 5882 5881
5909 5910 5911 5911 5911 5912 5913 5913 5913 5912 5912 5912 5911 5911 5911 5910 5909 5909 5909 5908 5906 5905 5905 5905 5905 5904 5903 5903 5902 5901 5900 5899 5898 5897 5896 5894 5893 5891 5890 5889 5887 5886 5885 5884 5883 5882 5881 5880 5878
5907 5908 5909 5909 5910 5910 5911 5911 5911 5910 5911 5910 5910 5910 5909 5909 5908 5908 5908 5907 5906 5905 5905 5905 5904 5904 5903 5902 5901 5900 5899 5898 5896 5895 5894 5893 5891 5890 5888 5887 5885 5884 5883 5881 5880 5879 5878 5877 5875
5905 5906 5907 5908 5908 5908 5909 5909 5909 5907 5908 5908 5908 5908 5907 5907 5907 5907 5907 5906 5905 5904 5904 5903 5903 5902 5901 5900 5899 5898 5897 5896 5895 5894 5892 5891 5890 5888 5886 5884 5883 5881 5880 5879 5877 5876 5875 5873 5872
5904 5905 5905 5905 5906 5906 5907 5906 5907 5906 5905 5906 5906 5905 5905 5906 5906 5906 5905 5904 5903 5902 5902 5902 5901 5900 5899 5898 5897 5896 5895 5894 5893 5892 5890 5889 5887 5886 5884 5882 5880 5879 5877 5876 5874 5872 5870 5869 5868
5901 5902 5903 5903 5903 5904 5904 5903 5904 5904 5903 5903 5904 5903 5903 5904 5903 5903 5903 5902 5901 5900 5899 5899 5899 5898 5896 5895 5894 5894 5893 5892 5891 5890 5888 5887 5885 5883 5881 5880 5878 5876 5875 5873 5871 5869 5867 5866 5864
5898 5899 5901 5901 5900 5901 5900 5900 5902 5901 5901 5900 5900 5900 5901 5901 5900 5900 5900 5899 5899 5897 5896 5897 5896 5895 5894 5893 5892 5891 5890 5890 5888 5887 5886 5884 5883 5881 5879 5877 5875 5874 5872 5870 5868 5866 5864 5862 5860
5895 5895 5897 5897 5897 5897 5897 5898 5898 5897 5897 5897 5897 5897 5897 5897 5897 5897 5897 5896 5895 5894 5893 5893 5892 5892 5891 5889 5889 5888 5887 5886 5885 5884 5882 5881 5880 5878 5876 5874 5872 5870 5868 5867 5865 5863 5861 5859 5858
5891 5892 5893 5893 5893 5893 5894 5895 5895 5895 5894 5894 5894 5894 5893 5894 5894 5893 5893 5892 5892 5891 5891 5890 5890 5889 5888 5887 5885 5885 5884 5883 5882 5881 5879 5878 5876 5875 5873 5870 5868 5866 5865 5863 5861 5860 5858 5856 5854
5887 5888 5888 5889 5890 5890 5890 5893 5893 5892 5891 5890 5890 5890 5891 5891 5891 5890 5890 5890 5889 5890 5889 5888 5887 5886 5885 5883 5882 5882 5880 5879 5879 5878 5876 5874 5872 5870 5868 5867 5865 5863 5861 5859 5857 5856 5854 5852 5851
5882 5883 5884 5885 5886 5886 5887 5890 5888 5888 5888 5887 5887 5886 5888 5888 5888 5888 5887 5887 5886 5886 5886 5885 5884 5883 5882 5881 5880 5878 5877 5875 5875 5873 5872 5870 5868 5866 5864 5863 5861 5859 5857 5855 5853 5851 5849 5848 5846